McAlester, OK

8:52 PM CDT on October 13, 2019 (GMT -0500)
McAlester Regional

Weather History for KMLC - July, 2019

Change the Weather History Date:

Sunday, July 21, 2019

  Actual Average Record
Temperature  
Mean Temperature 85 °F -  
Max Temperature 95 °F 92 °F 106 °F (1963)
Min Temperature 77 °F 69 °F 59 °F (1971)
Cooling Degree Days 20    
Growing Degree Days 35 (Base 50)    
Moisture  
Dew Point 71 °F    
Average Humidity 62    
Maximum Humidity 79    
Minimum Humidity 46    
Precipitation  
Precipitation 0.00 in - - ()
Sea Level Pressure  
Sea Level Pressure 29.91 in    
Wind  
Wind Speed 4 mph (South)    
Max Wind Speed 10 mph    
Max Gust Speed -    
Visibility 10 miles    
Events      
Averages and records for this station are not official NWS values.
T = Trace of Precipitation, MM = Missing Value Source: NWS Daily Summary

Daily Weather History Graph

Daily Weather History Graph

Search for Another Location

Airport or City:

Astronomy

Jul. 21, 2019 Rise Set
Actual Time 6:24 AM CDT 8:34 PM CDT
Civil Twilight 5:56 AM CDT 9:02 PM CDT
Nautical Twilight 5:21 AM CDT 9:37 PM CDT
Astronomical Twilight 4:43 AM CDT 10:14 PM CDT
Moon 11:38 PM CDT (7/21) 10:37 AM CDT (7/21)
Length of Visible Light 15h 06m
Length of Day
14h 09m
Waning Gibbous, 80% of the Moon is Illuminated
Jul 21
Waning Gibbous
Jul 24
Last Quarter
Jul 31
New
Aug 7
First Quarter
Aug 15
Full

Hourly Weather History & Observations

Time (CDT) Temp. Heat Index Dew Point Humidity Pressure Visibility Wind Dir Wind Speed Gust Speed Precip Events Conditions
12:53 AM 80.1 °F 83.6 °F 71.1 °F 74% 29.90 in 10.0 mi Calm Calm - N/A   Clear
1:53 AM 79.0 °F - 71.1 °F 77% 29.89 in 10.0 mi SSE 5.8 mph - N/A   Clear
2:53 AM 78.1 °F - 70.0 °F 76% 29.90 in 10.0 mi Calm Calm - N/A   Clear
3:53 AM 77.0 °F - 70.0 °F 79% 29.90 in 10.0 mi Calm Calm - N/A   Scattered Clouds
4:53 AM 77.0 °F - 70.0 °F 79% 29.90 in 10.0 mi South 6.9 mph - N/A   Clear
5:53 AM 78.1 °F - 69.1 °F 74% 29.92 in 10.0 mi South 3.5 mph - N/A   Clear
6:53 AM 77.0 °F - 70.0 °F 79% 29.94 in 10.0 mi South 3.5 mph - N/A   Clear
7:53 AM 79.0 °F - 71.1 °F 77% 29.95 in 10.0 mi Variable 4.6 mph - N/A   Clear
8:53 AM 82.9 °F 88.0 °F 72.0 °F 69% 29.96 in 10.0 mi SSW 10.4 mph - N/A   Clear
9:53 AM 84.9 °F 90.1 °F 71.1 °F 63% 29.94 in 10.0 mi South 8.1 mph - N/A   Clear
10:53 AM 87.1 °F 92.8 °F 71.1 °F 59% 29.92 in 10.0 mi South 6.9 mph - N/A   Clear
11:53 AM 89.1 °F 95.0 °F 71.1 °F 55% 29.93 in 10.0 mi South 8.1 mph - N/A   Clear
12:53 PM 91.9 °F 97.4 °F 70.0 °F 48% 29.93 in 10.0 mi SW 10.4 mph - N/A   Clear
1:53 PM 93.0 °F 99.0 °F 70.0 °F 47% 29.91 in 10.0 mi South 8.1 mph - N/A   Clear
2:53 PM 93.9 °F 100.8 °F 71.1 °F 47% 29.90 in 10.0 mi South 8.1 mph - N/A   Clear
3:53 PM 93.9 °F 100.3 °F 70.0 °F 46% 29.89 in 10.0 mi South 9.2 mph - N/A   Clear
4:53 PM 93.9 °F 100.8 °F 71.1 °F 47% 29.88 in 10.0 mi South 8.1 mph - N/A   Clear
5:53 PM 93.0 °F 100.7 °F 72.0 °F 50% 29.88 in 10.0 mi South 5.8 mph - N/A   Clear
6:53 PM 91.0 °F 100.4 °F 73.9 °F 57% 29.89 in 10.0 mi SSE 3.5 mph - N/A   Clear
7:53 PM 87.1 °F 94.5 °F 73.0 °F 63% 29.88 in 10.0 mi SSE 3.5 mph - N/A   Clear
8:53 PM 86.0 °F 91.5 °F 71.1 °F 61% 29.89 in 10.0 mi SSE 4.6 mph - N/A   Clear
9:53 PM 84.9 °F 88.8 °F 69.1 °F 59% 29.89 in 10.0 mi Variable 6.9 mph - N/A   Clear
10:53 PM 84.0 °F 86.5 °F 66.9 °F 56% 29.89 in 10.0 mi Variable 5.8 mph - N/A   Clear
11:53 PM 82.9 °F 85.4 °F 66.9 °F 58% 29.91 in 10.0 mi South 5.8 mph - N/A   Clear